[[{"header":{"parameterUnit":"m.s-1","parameterCategory":1,"la1":30.2991,"la2":30.254,"lo1":-89.0895,"lo2":-89.0444,"dy":0.0017,"dx":0.0017,"nx":28,"ny":28,"refTime":"2024-03-21T21:00:00:Z","depth":0,"parameterNumber":2,"parameterNumberName":"U-component_of_WINDS"},"data":[0,0,0,0,0,0,0,0,0,0,0,0,0,0,0,0,0,0,0,0,0,0,0,0,0,0,0,0,0,0,0,0,0,0,0,0,0,0,0,0,0,0,0,0,0,0,0,0,0,0,0,0,0,0,0,0,0,0,-6.6933,-6.6935,0,-6.7096,-6.7098,-6.71,-6.7027,-6.7023,-6.7019,-6.7015,-6.7173,-6.7181,-6.7189,0,0,0,0,0,0,0,0,0,0,0,0,0,-6.6549,-6.6556,-6.6933,-6.6935,-6.6937,-6.7096,-6.7098,-6.71,-6.7028,-6.7023,-6.7018,-6.7013,-6.7171,-6.718,-6.7189,0,0,0,0,0,0,0,0,0,0,0,0,0,-6.6714,-6.6559,-6.6932,-6.692,-6.6921,-6.7095,-6.7098,-6.7101,-6.7029,-6.7023,-6.7016,-6.7011,-6.7167,-6.7179,-6.7191,-6.7385,0,0,-6.7227,-6.7232,0,0,0,0,0,0,0,0,-6.6705,-6.6728,-6.692,-6.6921,-6.6922,-6.7035,-6.702,-6.7196,-6.703,-6.6987,-6.7015,-6.7008,-6.7131,-6.7146,-6.7189,-6.7392,-6.7399,-6.7228,-6.7235,-6.7241,-6.7244,0,0,0,0,0,0,0,-6.6693,-6.6721,-6.6997,-6.6923,-6.6924,-6.6903,-6.692,-6.7053,-6.7091,-6.699,-6.6986,-6.7006,-6.7131,-6.7178,-6.7193,-6.7401,-6.7228,-6.7238,-6.7246,-6.725,-6.7768,-6.7775,0,0,0,0,0,0,-6.6683,-6.6712,-6.6992,-6.7002,-6.6797,-6.6915,-6.6934,-6.7005,-6.7089,-6.7096,-6.7011,-6.7002,-6.7161,-6.7179,-6.7198,-6.7429,-6.724,-6.7252,-6.7258,-6.7762,-6.777,-6.7777,0,0,0,0,0,0,-6.6675,-6.6709,-6.6985,-6.6856,-6.6889,-6.6928,-6.7008,-6.7011,-6.7058,-6.7105,-6.711,-6.7054,-6.7157,-6.7181,-6.7339,-6.7433,-6.7257,-6.7268,-6.7754,-6.7764,-6.7773,-6.7893,0,0,0,0,0,0,-6.6665,-6.6707,-6.6783,-6.6858,-6.6897,-6.7127,-6.7014,-6.7019,-6.708,-6.707,-6.7146,-6.7153,-6.7154,-6.7322,-6.7351,-6.7446,-6.7277,-6.7746,-6.7758,-6.777,-6.7881,-6.7906,-6.7927,0,0,0,0,0,-6.6651,-6.6809,-6.6787,-6.6821,-6.6993,-6.7132,-6.7154,-6.7155,-6.7088,-6.7164,-6.7193,-6.715,-6.7419,-6.7338,-6.7371,-6.7471,-6.774,-6.7755,-6.7769,-6.787,-6.7901,-6.7927,0,0,0,0,0,0,-6.674,-6.6818,-6.6795,-6.6982,-6.7052,-6.712,-6.7215,-6.7187,-6.7275,-6.7261,-6.7255,-6.7273,-6.7436,-6.7469,-6.7378,-6.7662,-6.7568,-6.7591,-6.7634,-6.7664,-6.7687,-6.7674,-6.7287,0,0,0,0,0,-6.6783,-6.6892,-6.6953,-6.7112,-6.7148,-6.7176,-6.7237,-6.7232,-6.7302,-6.733,-6.7371,-6.7438,-6.7537,-6.7603,-6.7697,-6.7886,-6.79,-6.7971,-6.7994,-6.8013,-6.8031,-6.8132,-6.8163,-6.7826,-6.7826,-6.7825,0,0,-6.6869,-6.6925,-6.6994,-6.7131,-6.7184,-6.7295,-6.7201,-6.7322,-6.7403,-6.7347,-6.7499,-6.7532,-6.7606,-6.778,-6.7859,-6.7813,-6.8128,-6.8032,-6.8047,-6.8055,-6.815,-6.8182,-6.821,-6.7836,-6.7834,-6.7832,0,0,-6.7083,-6.7138,-6.7276,-6.7332,-6.7414,-6.7432,-6.7465,-6.7538,-6.7559,-6.7712,-6.7672,-6.7766,-6.7938,-6.7992,-6.8042,-6.8277,-6.824,-6.8308,-6.8428,-6.8526,-6.8553,-6.8576,-6.8658,-6.8687,-6.8326,-6.8327,-6.8327,0,-6.718,-6.7348,-6.7349,-6.7475,-6.7534,-6.7492,-6.763,-6.7683,-6.7791,-6.7832,-6.778,-6.7994,-6.8041,-6.8226,-6.8284,-6.8327,-6.8362,-6.8298,-6.8549,-6.8573,-6.8595,-6.8672,-6.8703,-6.8334,-6.8333,-6.8333,-6.8332,0,-6.7461,-6.7578,-6.7679,-6.7787,-6.7859,-6.7989,-6.8008,-6.808,-6.8068,-6.809,-6.8245,-6.8301,-6.8404,-6.8448,-6.8437,-6.8632,-6.8601,-6.855,-6.8455,-6.8635,-6.8707,-6.8737,-6.8345,-6.8342,-6.834,-6.8338,0,0,-6.7735,-6.7844,-6.788,-6.7928,-6.8017,-6.8105,-6.8233,-6.8337,-6.8398,-6.8473,-6.8578,-6.8724,-6.8678,-6.8735,-6.8729,-6.8816,-6.8996,-6.8754,-6.8755,-6.8795,-6.921,-6.9246,-6.9281,-6.8972,-6.8978,-6.8983,-6.9203,0,-6.7954,-6.8181,-6.8186,-6.8392,-6.8498,-6.846,-6.857,-6.8634,-6.8659,-6.875,-6.8774,-6.8878,-6.881,-6.8844,-6.8928,-6.8956,-6.9078,-6.894,-6.9066,-6.907,-6.9047,-6.9319,-6.9359,-6.9564,-6.9232,-6.9236,-6.924,0,-6.8239,-6.8327,-6.8545,-6.8617,-6.8662,-6.8762,-6.8857,-6.8946,-6.9017,-6.9028,-6.9093,-6.9075,-6.9201,-6.9104,-6.9277,-6.9183,-6.9234,-6.9256,-6.9264,-6.9273,-6.9165,-6.9334,-6.963,-6.966,-6.9285,-6.9282,-6.9278,0,-6.8415,-6.8587,-6.8739,-6.8782,-6.8871,-6.8941,-6.8981,-6.9046,-6.9108,-6.9191,-6.923,-6.9326,-6.9377,-6.945,-6.9457,-6.9386,-6.963,-6.9534,-6.9639,-6.9639,-6.969,-6.9687,-6.9996,-6.9728,-6.9727,-6.9727,-6.9726,0,-6.8657,-6.8791,-6.8819,-6.8913,-6.9061,-6.9064,-6.921,-6.9243,-6.9302,-6.9398,-6.937,-6.9461,-6.9466,-6.9558,-6.9563,-6.9704,-6.9728,-6.9738,-6.9737,-6.9739,-6.9738,-6.9771,-6.9756,-6.9735,-6.9733,-6.9732,-6.973,0,-6.8877,-6.8902,-6.9065,-6.9136,-6.9157,-6.9263,-6.9322,-6.9409,-6.9431,-6.9554,-6.9582,-6.9615,-6.9722,-6.9737,-6.9861,-6.9865,-7.0033,-7.0019,-7.001,-7.0007,-7.0111,-7.0101,-7.0451,-7.0496,-7.0201,-7.0204,-7.0206,0,-6.903,-6.9132,-6.9215,-6.928,-6.9324,-6.9428,-6.9491,-6.9498,-6.9565,-6.9654,-6.973,-6.9835,-6.9919,-7.0091,-7.0124,-7.0218,-7.0204,-7.0321,-7.0218,-7.0216,-7.0203,-7.0196,-7.0205,-7.0339,-7.0343,-7.0345,-7.0348,0,-6.9297,-6.9304,-6.9399,-6.9499,-6.9576,-6.9654,-6.9727,-6.9781,-6.9796,-6.9873,-6.9983,-7.0049,-7.0177,-7.028,-7.0374,-7.041,-7.0381,-7.038,-7.0409,-7.0411,-7.0401,-7.0406,-7.0062,-7.0371,-7.0369,-7.0367,-7.0366,-7.0365,-6.9486,-6.9575,-6.9647,-6.9753,-6.981,-6.9879,-6.9965,-6.9998,-7.0092,-7.0198,-7.0196,-7.0317,-7.0383,-7.0506,-7.055,-7.0642,-7.0603,-7.0646,-7.0656,-7.0666,-7.0676,-7.0389,-7.0659,-7.0659,-7.0658,-7.0657,-7.0657,0,-6.9749,-6.9795,-6.9893,-6.9997,-7.008,-7.005,-7.0129,-7.0199,-7.0307,-7.0373,-7.0457,-7.0583,-7.0683,-7.0724,-7.0822,-7.0887,-7.0876,-7.0912,-7.0906,-7.0915,-7.0706,-7.067,-7.092,-7.092,-7.092,-7.092,-7.0919,-7.0919,-6.9896,-7.0045,-7.0061,-7.0236,-7.0279,-7.0399,-7.0447,-7.0509,-7.0562,-7.0705,-7.0789,-7.0817,-7.0872,-7.0973,-7.1063,-7.1072,-7.1108,-7.115,-7.1153,-7.0956,-7.093,-7.0904,-7.087,-7.1158,-7.1158,-7.1354,-7.1356,-7.1357]},{"header":{"parameterUnit":"m.s-1","parameterCategory":1,"la1":30.2991,"la2":30.254,"lo1":-89.0895,"lo2":-89.0444,"dy":0.0017,"dx":0.0017,"nx":28,"ny":28,"refTime":"2024-03-21T21:00:00:Z","depth":0,"parameterNumber":3,"parameterNumberName":"V-component_of_WINDS"},"data":[0,0,0,0,0,0,0,0,0,0,0,0,0,0,0,0,0,0,0,0,0,0,0,0,0,0,0,0,0,0,0,0,0,0,0,0,0,0,0,0,0,0,0,0,0,0,0,0,0,0,0,0,0,0,0,0,0,0,4.4871,4.4872,0,4.503,4.5031,4.5033,4.5053,4.5052,4.505,4.5049,4.5208,4.5213,4.5219,0,0,0,0,0,0,0,0,0,0,0,0,0,4.4581,4.4586,4.4871,4.4873,4.4875,4.5029,4.5031,4.5034,4.5053,4.5052,4.505,4.5048,4.5206,4.5213,4.5219,0,0,0,0,0,0,0,0,0,0,0,0,0,4.472,4.4588,4.487,4.4903,4.4908,4.5029,4.5031,4.5034,4.5054,4.5052,4.5049,4.5047,4.5204,4.5212,4.522,4.5318,0,0,4.5246,4.525,0,0,0,0,0,0,0,0,4.4712,4.4731,4.4896,4.4901,4.4906,4.5019,4.4988,4.5129,4.5054,4.4998,4.5049,4.5046,4.5147,4.516,4.5194,4.5326,4.5333,4.5247,4.5252,4.5256,4.5258,0,0,0,0,0,0,0,4.4702,4.4724,4.4933,4.4899,4.4905,4.4909,4.4926,4.5015,4.5083,4.5003,4.5005,4.5024,4.5149,4.5186,4.5198,4.5335,4.5247,4.5254,4.526,4.5263,4.5555,4.5557,0,0,0,0,0,0,4.4687,4.4716,4.4928,4.4938,4.4802,4.4916,4.4935,4.4985,4.5082,4.5095,4.5025,4.5024,4.5173,4.5188,4.5204,4.5325,4.5256,4.5264,4.5269,4.5552,4.5555,4.5558,0,0,0,0,0,0,4.4681,4.4706,4.4922,4.4828,4.4855,4.4924,4.4979,4.499,4.5027,4.5099,4.5111,4.5051,4.5172,4.5192,4.529,4.5331,4.5268,4.5275,4.5549,4.5553,4.5557,4.5569,0,0,0,0,0,0,4.4673,4.4704,4.4742,4.4828,4.486,4.5006,4.4982,4.4994,4.5042,4.5042,4.5127,4.5138,4.5171,4.5277,4.5298,4.5342,4.5282,4.5546,4.5551,4.5555,4.5565,4.5572,4.5579,0,0,0,0,0,4.4662,4.4739,4.4744,4.477,4.491,4.5009,4.5027,4.5064,4.5045,4.5084,4.5131,4.5136,4.5323,4.5287,4.5311,4.5357,4.5543,4.5549,4.5555,4.5562,4.5571,4.5579,0,0,0,0,0,0,4.4655,4.4751,4.4758,4.4865,4.4929,4.5012,4.5062,4.5073,4.5143,4.5139,4.5182,4.5201,4.5297,4.5337,4.5295,4.5457,4.5431,4.5442,4.5428,4.5437,4.5444,4.5433,4.5289,0,0,0,0,0,4.4666,4.4739,4.4818,4.4904,4.4936,4.4994,4.5038,4.5061,4.5129,4.5156,4.5209,4.5273,4.5347,4.5394,4.5466,4.5571,4.5589,4.5614,4.5621,4.5627,4.5636,4.5694,4.5706,4.5578,4.5578,4.5578,0,0,4.4688,4.475,4.4793,4.4904,4.4957,4.503,4.5016,4.5095,4.515,4.5167,4.5263,4.5305,4.5379,4.5481,4.5529,4.5517,4.5675,4.5634,4.5638,4.5644,4.5701,4.5714,4.5724,4.5582,4.5581,4.5581,0,0,4.4768,4.4822,4.49,4.4953,4.5033,4.5071,4.5089,4.5172,4.52,4.5298,4.5313,4.5378,4.5503,4.5556,4.5599,4.5698,4.5706,4.572,4.5757,4.5814,4.5824,4.5833,4.5869,4.5881,4.5729,4.5729,4.5729,0,4.4786,4.4899,4.4939,4.5017,4.5065,4.5086,4.5165,4.5214,4.5312,4.5344,4.5331,4.5489,4.5541,4.5655,4.5679,4.5714,4.5736,4.5711,4.5819,4.5829,4.5838,4.5872,4.5886,4.573,4.573,4.573,4.573,0,4.4918,4.4995,4.5049,4.5145,4.5199,4.5277,4.5327,4.5377,4.5396,4.5435,4.5533,4.5596,4.5681,4.5709,4.5728,4.5827,4.5817,4.5811,4.5785,4.5851,4.5884,4.5897,4.5732,4.5732,4.5731,4.5731,0,0,4.4997,4.5114,4.5133,4.5177,4.5266,4.5327,4.5405,4.5489,4.5531,4.5598,4.5665,4.5771,4.5766,4.5815,4.5839,4.5889,4.5963,4.5876,4.5879,4.589,4.6076,4.608,4.6095,4.5969,4.5971,4.5973,4.607,0,4.5087,4.5229,4.5267,4.5387,4.546,4.548,4.5548,4.561,4.5648,4.5714,4.5756,4.5831,4.5818,4.5848,4.5898,4.5944,4.6001,4.5937,4.603,4.6033,4.6011,4.6112,4.6117,4.6205,4.6083,4.6085,4.6087,0,4.5211,4.5282,4.541,4.549,4.5522,4.5583,4.5663,4.5726,4.5796,4.582,4.5875,4.5895,4.5977,4.5947,4.606,4.6016,4.6056,4.6084,4.6088,4.6098,4.6064,4.6125,4.6234,4.6247,4.6107,4.6106,4.6104,0,4.5257,4.5384,4.5477,4.5514,4.561,4.5652,4.5694,4.5762,4.581,4.5879,4.5911,4.5988,4.603,4.609,4.613,4.6104,4.6239,4.6212,4.6261,4.626,4.6289,4.6286,4.6405,4.6314,4.6314,4.6314,4.6313,0,4.5353,4.5431,4.5499,4.5556,4.5643,4.5685,4.577,4.5812,4.5872,4.5937,4.5959,4.6019,4.6068,4.6135,4.6166,4.6255,4.6274,4.6295,4.6303,4.6294,4.6291,4.6321,4.6316,4.6317,4.6317,4.6316,4.6315,0,4.5419,4.5467,4.557,4.5653,4.5675,4.5736,4.5806,4.5862,4.5901,4.5983,4.6004,4.6065,4.6145,4.6191,4.6291,4.6312,4.6411,4.6415,4.6387,4.6391,4.6437,4.6432,4.6579,4.6601,4.6495,4.6496,4.6496,0,4.5477,4.5538,4.5627,4.5673,4.5715,4.5789,4.5838,4.5881,4.5932,4.6016,4.6062,4.6143,4.621,4.6336,4.6389,4.6465,4.6472,4.6518,4.6484,4.6473,4.6473,4.6469,4.6475,4.6524,4.6525,4.6526,4.6527,0,4.5576,4.5598,4.5669,4.5748,4.5807,4.5872,4.5935,4.5971,4.6025,4.6081,4.6163,4.6215,4.6318,4.6398,4.6479,4.6521,4.6533,4.6537,4.6553,4.6544,4.6526,4.6536,4.6404,4.6534,4.6533,4.6532,4.6532,4.6532,4.5641,4.5695,4.5767,4.5845,4.5898,4.5957,4.6014,4.606,4.613,4.6218,4.6239,4.6326,4.6394,4.6504,4.6548,4.6615,4.6607,4.6629,4.6635,4.664,4.6641,4.6515,4.663,4.663,4.663,4.663,4.663,0,4.5741,4.5788,4.586,4.5949,4.6011,4.6017,4.6088,4.6139,4.6216,4.6279,4.6345,4.6439,4.6517,4.6576,4.6655,4.6698,4.6706,4.6718,4.6715,4.6724,4.6644,4.6623,4.671,4.671,4.671,4.671,4.671,4.671,4.58,4.5893,4.5923,4.6041,4.6088,4.6174,4.6214,4.6268,4.6319,4.6424,4.6489,4.6527,4.6589,4.6673,4.6744,4.6759,4.6788,4.6799,4.6815,4.6739,4.673,4.6722,4.6702,4.6805,4.6805,4.689,4.6891,4.6891]}]]